Temperature
22 21 20 20 19 19 19 19 18 18 18 18 18 18 18 17 17 17 17 18 17 17 17 17 17 17 17 17 17 17 17 17 17 17 18 18 18 18 17 17 17 17 17
22 21 20 20 19 19 19 19 19 18 18 18 18 18 18 17 17 17 17 18 17 17 17 17 17 17 17 17 17 17 17 17 17 17 18 18 18 18 18 17 17 17 17
23 21 21 20 20 19 19 19 18 18 18 18 18 17 18 18 18 17 17 18 18 17 17 17 17 17 17 17 17 17 17 17 17 17 17 18 18 18 18 17 17 17 17
23 22 21 20 20 20 19 18 18 18 18 18 18 17 17 17 18 17 17 17 17 17 17 18 17 17 17 17 17 17 17 17 17 17 17 17 17 17 17 17 17 17 17
23 22 21 20 20 20 19 19 18 18 18 18 18 18 17 17 18 18 18 17 17 17 17 17 18 18 17 17 17 17 17 17 17 17 17 17 17 17 17 17 17 17 17
23 22 21 20 20 20 19 19 18 18 18 18 18 18 18 18 18 18 18 17 17 17 17 17 18 17 17 17 17 17 17 17 17 17 17 17 17 17 17 17 17 17 17
22 22 21 20 20 19 19 19 19 19 18 18 18 18 18 18 18 18 17 17 17 17 17 17 17 17 17 17 17 17 17 17 17 17 17 17 17 17 17 17 17 17 17
22 21 21 20 20 19 19 19 18 18 18 18 18 18 18 18 17 18 17 17 17 17 17 17 17 17 17 17 17 17 17 17 17 17 17 17 17 17 16 16 16 17 17
22 21 21 20 19 19 19 19 18 18 18 18 18 18 18 18 18 17 17 17 17 17 17 17 17 17 17 17 17 17 17 17 17 16 17 16 16 16 16 16 16 16 17
22 21 20 20 19 19 19 18 18 18 18 18 18 17 17 17 17 17 17 17 17 17 17 17 17 17 17 17 17 16 16 16 17 16 16 16 16 16 16 16 16 16 16
22 21 20 19 19 19 19 18 18 18 18 18 18 17 17 17 17 17 17 17 17 16 17 16 16 16 16 16 16 16 16 16 16 16 16 16 16 16 16 15 15 15 16
22 21 20 19 19 19 18 18 18 18 18 18 17 17 17 17 17 16 16 16 16 16 16 16 16 16 16 16 16 16 16 16 16 16 16 15 15 15 15 15 15 15 15
21 21 20 19 18 18 18 18 18 18 17 17 17 17 17 17 16 16 16 16 16 16 16 16 16 16 16 16 16 15 15 15 15 15 15 15 15 15 15 15 15 15 15
20 20 19 18 18 18 17 17 17 17 17 17 17 16 16 16 16 16 16 16 16 15 15 15 15 15 15 15 15 15 15 15 15 15 15 15 14 14 14 14 14 14 14
20 20 19 18 18 17 17 17 17 17 16 16 16 16 16 16 16 16 16 15 15 15 15 15 15 15 15 15 15 15 15 15 14 14 15 14 14 14 14 14 14 14 14
20 19 18 18 17 17 17 17 16 16 16 16 16 16 16 16 15 15 15 15 15 15 15 14 14 14 14 15 15 15 14 14 14 14 14 14 14 14 14 14 14 14 14
19 19 18 18 17 17 16 16 16 16 16 16 16 15 15 15 15 15 15 15 15 14 14 14 14 14 14 14 14 15 14 14 14 14 14 14 14 14 14 14 14 14 14
19 18 18 17 17 17 16 16 16 15 15 15 15 15 15 15 15 15 14 14 14 14 14 14 14 14 14 14 14 14 14 13 13 13 13 13 13 13 13 13 13 13 13
18 18 17 17 17 16 16 16 15 15 15 15 15 14 14 14 14 14 14 14 14 14 14 13 13 13 13 13 13 13 13 13 13 13 13 12 13 13 13 13 13 13 13
17 17 17 17 16 16 15 15 15 15 15 14 14 14 14 14 14 14 14 14 14 13 13 13 13 13 13 13 13 13 12 12 12 12 12 12 12 12 12 12 12 12 12
17 16 16 16 16 15 15 15 14 14 14 14 14 14 13 14 14 14 14 13 13 13 13 13 13 13 13 13 13 12 12 12 12 12 12 12 12 12 12 12 12 12 12
16 16 16 15 15 15 15 14 14 14 14 13 13 13 13 13 13 13 13 13 13 13 13 12 12 12 12 12 12 12 12 12 11 11 11 11 11 11 11 11 11 11 11
16 16 15 15 15 15 14 14 14 13 13 13 13 13 13 13 13 13 13 12 12 13 12 12 12 12 11 11 12 12 12 11 11 11 11 11 11 11 11 11 11 11 11
15 15 15 15 14 14 14 14 13 13 13 13 12 13 13 13 12 12 12 12 12 12 12 12 12 12 11 11 11 11 11 11 11 10 10 10 10 10 10 10 10 10 10
15 15 14 14 14 14 14 13 13 13 13 13 12 12 12 12 12 12 12 12 12 12 12 12 12 11 11 11 11 11 11 11 10 10 10 10 10 10 10 10 10 10 10
15 14 14 14 14 14 13 13 13 13 13 13 12 13 13 12 12 12 12 12 12 12 11 11 11 11 11 11 11 11 11 10 10 10 10 10 10 10 10 10 10 9 9
Wind_Speed
4 4 4 5 4 4 3 2 1 1 1 1 1 1 1 0 1 0 1 1 1 1 1 1 2 2 2 2 2 2 2 2 1 1 1 1 2 2 2 2 1 2 3
5 5 4 5 5 5 4 4 3 2 2 1 1 1 0 0 1 1 1 1 1 1 1 1 2 2 2 3 2 2 2 2 2 1 2 2 2 2 2 2 2 2 2
5 6 5 5 5 5 4 4 4 3 2 2 1 1 1 1 0 0 1 1 1 1 1 1 2 2 3 3 3 3 3 2 2 1 1 1 1 0 1 2 2 2 2
5 5 5 5 4 4 4 4 3 3 3 3 2 2 1 1 0 0 1 1 1 1 1 1 1 2 2 2 3 3 3 3 3 2 1 1 0 1 1 2 2 2 2
5 5 4 4 4 3 3 3 3 3 3 3 2 2 1 1 0 0 1 1 1 1 1 2 1 1 2 2 3 2 3 3 3 2 2 2 2 3 3 2 2 2 2
5 4 4 4 3 3 3 3 3 3 3 3 2 2 1 1 1 1 1 1 1 1 1 1 1 2 1 1 2 2 3 3 2 3 2 2 2 3 3 3 3 3 2
5 4 4 4 3 3 3 3 4 3 3 3 2 2 2 1 1 1 0 1 1 1 1 1 1 1 1 1 1 1 2 2 3 3 3 3 3 3 3 3 3 3 3
4 4 4 4 4 4 4 3 4 4 4 3 3 2 1 1 1 0 1 1 1 1 2 1 1 1 1 0 0 1 1 1 2 2 2 3 3 3 3 4 3 4 3
4 4 3 4 4 3 4 3 4 4 4 4 3 2 2 1 1 0 1 1 1 1 1 1 1 1 0 0 1 1 1 1 2 2 2 3 2 2 3 3 4 4 4
4 4 4 3 3 3 3 3 4 4 4 4 3 2 2 2 1 1 1 1 1 2 1 1 0 0 0 1 1 1 1 1 1 1 1 2 2 2 3 3 4 4 5
4 4 4 4 4 3 4 4 4 3 3 3 2 2 1 1 1 1 1 1 1 1 1 1 1 1 1 1 1 1 1 1 1 1 2 2 2 3 3 3 3 4 4
4 4 5 4 4 4 3 3 3 3 3 3 3 2 2 1 1 1 1 1 1 1 1 1 1 1 1 1 1 2 2 2 2 2 2 2 2 3 3 3 4 4 4
4 4 4 4 4 3 3 2 2 2 2 2 3 2 1 1 1 1 1 1 1 1 1 2 2 2 2 2 2 2 3 3 3 3 3 3 3 4 4 4 4 4 4
4 4 4 3 3 3 3 2 2 1 1 1 1 1 1 1 1 1 1 2 2 2 2 2 2 1 2 2 2 3 3 3 3 3 3 3 4 4 4 4 5 5 5
4 3 3 3 3 3 3 2 2 2 2 1 1 1 1 1 0 0 1 1 2 2 2 1 2 1 2 2 2 3 3 3 3 3 3 3 2 3 3 4 4 4 4
3 3 3 3 3 3 2 2 2 2 2 1 1 1 1 1 1 0 0 1 1 1 1 2 2 2 2 3 3 3 3 2 2 3 3 3 2 2 2 3 3 4 4
3 3 3 2 2 2 2 2 2 2 2 1 1 1 1 1 1 1 1 1 1 1 2 2 2 2 2 3 2 3 3 3 3 3 3 3 2 2 4 3 4 4 4
2 2 2 2 2 2 2 2 2 1 1 1 1 1 1 1 1 1 1 1 2 2 2 2 2 2 2 2 2 4 4 3 3 3 3 3 2 3 4 4 3 4 4
2 2 1 1 1 1 2 2 1 1 1 1 0 1 1 1 2 1 2 2 2 2 2 2 2 2 2 2 2 4 3 2 2 2 2 2 3 2 3 4 4 4 4
2 2 2 2 2 1 1 1 1 1 1 1 2 2 2 2 2 2 2 2 2 2 3 2 2 2 2 1 2 4 3 2 2 2 2 1 2 3 3 4 4 5 5
4 3 3 3 2 1 1 0 0 1 2 2 2 2 2 2 2 2 2 2 2 2 3 3 2 2 2 1 0 2 3 2 2 2 2 1 2 1 3 4 4 5 6
4 4 4 3 2 1 0 0 0 1 1 1 1 1 2 2 1 2 2 2 2 2 2 3 3 2 1 1 1 1 3 4 3 3 2 1 1 1 3 3 4 5 5
3 3 3 3 2 1 1 1 1 1 1 1 1 1 1 1 2 2 2 2 2 3 2 2 2 2 1 0 1 2 2 4 3 2 1 1 3 4 3 3 4 4 4
2 2 2 2 2 1 1 1 1 1 1 1 1 2 2 2 2 2 2 2 2 2 2 2 2 2 1 2 2 1 1 2 2 2 2 4 5 4 3 3 3 4 4
2 2 1 1 1 1 1 1 1 1 1 2 2 2 2 2 2 1 2 2 2 2 3 3 2 2 2 2 3 2 2 2 3 3 2 1 1 1 1 2 2 3 3
2 2 1 0 1 1 1 1 2 2 2 2 2 2 2 2 2 2 1 1 2 2 2 2 3 1 1 1 1 2 4 5 5 3 1 2 2 2 2 2 2 2 2
Wind_Direction
165 164 174 180 179 179 179 179 179 155 180 182 195 177 153 73 68 53 49 355 320 282 254 246 185 218 204 206 200 202 195 192 163 174 182 183 181 180 191 198 190 187 192
168 170 178 182 189 190 192 187 189 182 193 178 189 196 209 140 104 16 57 2 354 313 246 234 221 215 194 189 195 196 210 199 179 208 213 201 183 179 192 191 191 208 205
176 172 178 184 192 197 198 198 196 189 196 200 186 155 170 231 128 117 60 24 11 339 321 288 252 224 222 200 201 202 204 209 206 211 245 246 231 122 177 188 198 209 228
178 176 178 185 190 197 198 199 194 191 190 192 195 195 225 262 308 319 50 22 13 348 322 289 260 248 246 214 223 212 215 210 211 204 236 288 304 245 215 202 190 197 221
179 178 179 182 187 185 186 184 185 188 184 190 191 214 246 263 276 335 20 322 26 4 356 329 298 264 254 243 246 229 225 221 228 227 207 203 209 235 242 244 238 225 227
173 171 165 163 166 163 162 165 167 177 178 178 182 200 213 241 290 308 343 336 27 25 24 348 321 289 277 249 241 239 224 228 236 242 232 227 230 227 238 247 249 259 261
166 166 165 162 162 156 152 150 151 158 163 163 172 186 194 203 215 267 306 320 343 5 23 359 344 313 305 283 252 222 235 226 229 234 236 248 253 248 251 244 252 262 262
148 159 168 168 168 161 155 154 156 163 166 165 166 165 175 202 201 234 301 327 334 0 24 23 27 5 328 305 201 220 217 216 224 231 240 248 256 252 244 245 246 255 257
146 152 160 169 167 165 161 165 167 168 170 172 175 173 180 204 206 209 260 305 335 337 6 359 44 44 4 278 225 213 223 217 223 222 217 239 247 245 245 241 242 251 258
147 145 147 148 151 157 155 162 167 172 173 173 188 185 192 199 204 230 260 309 313 318 325 331 331 223 201 214 232 220 221 227 227 241 243 250 248 247 245 242 244 247 251
140 140 142 138 131 131 146 150 152 159 167 174 185 196 197 198 202 216 237 250 263 270 270 288 282 256 228 215 210 241 250 253 263 264 243 252 262 255 248 249 251 253 251
134 133 134 135 132 126 118 121 133 146 159 167 173 175 177 186 210 218 240 244 252 259 258 278 273 261 237 218 215 233 236 242 250 258 259 259 251 252 256 253 251 253 250
128 128 128 133 132 127 118 114 118 129 143 159 167 163 173 192 215 235 256 244 244 266 273 268 265 259 244 228 230 238 240 240 249 255 256 259 256 255 255 257 255 253 248
138 130 130 130 128 120 106 93 82 92 115 128 140 145 163 193 234 253 260 256 251 255 264 262 265 260 268 268 251 236 238 241 246 251 256 256 257 257 259 256 255 253 250
142 134 135 125 125 112 102 87 70 64 72 89 86 75 60 56 351 289 280 271 264 253 250 257 264 250 249 284 282 252 237 239 247 252 257 256 271 296 286 281 265 255 252
149 144 141 126 124 121 112 98 82 80 83 73 52 51 48 34 11 346 332 325 334 323 298 275 278 285 307 21 356 303 259 248 250 260 265 258 249 264 263 289 298 288 263
167 163 154 143 141 137 128 123 108 100 94 79 43 25 31 27 7 355 348 334 332 332 328 312 296 290 346 21 349 310 270 256 259 264 271 272 274 278 272 260 249 264 284
162 156 154 148 146 135 135 134 123 116 112 90 42 8 320 317 312 310 316 292 279 286 291 301 300 297 335 359 325 298 261 261 257 257 265 272 275 285 284 269 265 264 263
130 134 135 116 111 122 127 137 138 135 139 143 235 275 276 276 277 273 278 285 283 277 272 279 295 296 313 349 325 295 267 264 258 261 274 287 276 335 304 266 268 274 277
100 104 101 90 79 70 112 147 165 162 194 209 223 242 260 262 265 268 271 270 268 270 272 274 277 284 298 336 325 291 278 275 266 257 251 2 341 349 311 266 268 273 281
96 91 86 80 75 63 45 99 242 228 231 224 232 243 252 252 256 264 262 255 257 268 274 275 268 272 292 278 333 297 292 290 280 274 271 317 60 328 303 287 283 289 288
95 93 92 83 71 60 62 355 319 291 253 224 232 251 267 269 252 250 255 256 259 258 266 271 278 278 278 313 223 220 272 298 273 271 276 293 135 250 276 287 309 302 287
107 104 99 86 64 44 13 342 324 299 266 233 248 257 264 270 260 248 248 247 249 261 270 271 278 290 309 294 173 198 241 278 271 280 323 284 231 228 239 241 261 269 275
127 126 112 83 52 36 15 347 324 307 287 279 271 261 261 259 256 262 261 271 280 274 266 267 284 299 328 334 331 310 274 247 255 269 236 216 224 235 250 247 252 262 272
139 135 115 74 40 36 24 338 316 298 292 288 271 263 259 261 258 262 303 286 298 300 285 280 281 294 305 333 354 330 324 317 310 290 273 300 323 315 303 303 301 288 282
165 163 154 120 27 4 351 328 304 287 278 277 270 269 273 270 259 241 236 161 228 202 228 268 290 298 334 356 354 315 316 310 293 283 284 282 284 289 288 289 289 287 299
Height
1532 1533 1533 1534 1534 1534 1534 1534 1534 1534 1534 1534 1534 1534 1534 1535 1535 1535 1535 1535 1535 1535 1535 1535 1535 1535 1535 1535 1535 1536 1536 1537 1537 1538 1539 1540 1541 1542 1542 1543 1544 1545 1545
1531 1532 1533 1534 1534 1534 1534 1534 1534 1534 1534 1534 1533 1533 1534 1535 1535 1535 1535 1535 1535 1535 1535 1534 1534 1534 1534 1534 1534 1534 1535 1536 1537 1538 1538 1539 1541 1541 1541 1542 1542 1543 1544
1529 1531 1532 1533 1533 1533 1534 1534 1534 1533 1533 1533 1534 1534 1534 1535 1535 1535 1535 1535 1535 1534 1534 1534 1534 1533 1534 1534 1534 1534 1534 1535 1536 1537 1538 1539 1539 1540 1541 1541 1541 1541 1542
1528 1529 1531 1531 1532 1533 1533 1533 1533 1533 1533 1533 1534 1534 1534 1535 1535 1535 1535 1535 1534 1534 1534 1533 1533 1533 1533 1533 1533 1534 1534 1534 1535 1536 1537 1538 1538 1539 1540 1540 1540 1540 1540
1526 1528 1529 1530 1531 1532 1532 1532 1532 1532 1532 1533 1533 1534 1534 1535 1535 1535 1534 1534 1534 1533 1533 1533 1532 1532 1532 1532 1532 1533 1533 1533 1534 1535 1536 1536 1537 1538 1538 1538 1539 1539 1539
1525 1527 1528 1529 1530 1531 1531 1531 1530 1531 1531 1532 1533 1533 1534 1534 1534 1534 1534 1534 1534 1533 1532 1532 1532 1532 1532 1531 1531 1531 1532 1532 1532 1533 1534 1535 1536 1536 1536 1536 1536 1537 1538
1523 1525 1527 1528 1529 1529 1530 1530 1529 1530 1531 1531 1532 1533 1533 1533 1533 1533 1533 1533 1533 1532 1531 1531 1531 1531 1530 1530 1530 1530 1530 1531 1531 1531 1532 1533 1534 1534 1534 1534 1534 1535 1535
1522 1523 1525 1526 1527 1528 1528 1528 1529 1529 1530 1530 1531 1532 1532 1532 1533 1532 1533 1532 1532 1532 1531 1530 1530 1529 1529 1529 1529 1529 1529 1529 1529 1530 1530 1531 1532 1532 1532 1532 1533 1533 1533
1521 1522 1523 1525 1525 1526 1527 1527 1527 1528 1528 1529 1530 1530 1531 1531 1531 1531 1531 1531 1531 1531 1530 1529 1528 1528 1528 1528 1528 1528 1527 1528 1528 1528 1528 1529 1529 1529 1530 1530 1530 1531 1530
1520 1521 1522 1523 1524 1525 1525 1526 1526 1526 1527 1527 1528 1529 1529 1530 1530 1530 1530 1529 1529 1529 1528 1528 1527 1527 1526 1526 1526 1526 1526 1526 1526 1526 1526 1526 1527 1527 1527 1527 1527 1528 1528
1519 1520 1521 1522 1523 1524 1524 1525 1525 1525 1526 1526 1527 1527 1528 1528 1528 1528 1528 1528 1527 1527 1526 1526 1526 1526 1525 1525 1524 1525 1524 1524 1524 1524 1524 1524 1524 1524 1525 1525 1525 1525 1525
1519 1520 1521 1521 1522 1522 1523 1524 1524 1525 1525 1525 1525 1526 1526 1526 1527 1527 1526 1526 1526 1525 1525 1524 1524 1524 1524 1523 1523 1522 1522 1522 1522 1522 1522 1522 1522 1522 1522 1522 1522 1522 1522
1518 1519 1520 1521 1521 1522 1522 1522 1523 1523 1524 1524 1524 1525 1525 1525 1525 1525 1525 1524 1524 1524 1523 1523 1522 1522 1522 1521 1521 1520 1520 1520 1520 1520 1520 1520 1520 1519 1519 1519 1519 1519 1519
1518 1519 1520 1520 1521 1521 1521 1522 1522 1523 1523 1523 1523 1524 1523 1523 1523 1523 1523 1523 1522 1522 1521 1521 1521 1520 1520 1519 1518 1518 1518 1518 1517 1517 1517 1517 1517 1516 1516 1516 1516 1516 1515
1518 1519 1520 1520 1521 1520 1520 1521 1521 1521 1522 1522 1522 1522 1522 1522 1522 1521 1521 1521 1520 1520 1519 1519 1518 1518 1518 1517 1516 1515 1515 1515 1515 1514 1514 1514 1513 1513 1513 1513 1513 1512 1512
1518 1519 1519 1520 1520 1520 1520 1520 1520 1520 1520 1520 1520 1520 1520 1520 1520 1519 1519 1519 1518 1518 1518 1517 1516 1516 1515 1514 1513 1512 1512 1512 1512 1511 1511 1511 1510 1510 1510 1510 1509 1509 1509
1517 1518 1518 1519 1519 1519 1519 1518 1519 1519 1519 1519 1519 1519 1519 1518 1518 1517 1517 1516 1516 1516 1515 1514 1514 1513 1512 1511 1510 1510 1509 1509 1509 1508 1508 1508 1508 1507 1506 1506 1506 1505 1505
1516 1516 1517 1518 1518 1518 1518 1517 1518 1517 1517 1517 1517 1517 1517 1516 1516 1515 1514 1514 1514 1513 1512 1512 1511 1510 1509 1509 1508 1507 1506 1506 1506 1505 1505 1504 1503 1503 1503 1502 1502 1501 1501
1515 1515 1516 1517 1517 1517 1517 1516 1516 1516 1516 1515 1515 1515 1515 1514 1514 1513 1513 1512 1511 1511 1510 1509 1508 1507 1506 1506 1505 1504 1504 1503 1502 1502 1501 1500 1500 1500 1499 1499 1498 1497 1497
1514 1514 1515 1515 1516 1516 1516 1515 1515 1515 1514 1514 1513 1513 1513 1513 1512 1512 1511 1510 1509 1509 1508 1507 1506 1505 1504 1502 1502 1501 1501 1500 1500 1499 1498 1498 1497 1497 1496 1495 1495 1494 1493
1513 1514 1514 1514 1514 1515 1514 1514 1514 1513 1513 1513 1512 1512 1511 1511 1510 1509 1508 1508 1507 1507 1506 1505 1504 1503 1501 1500 1499 1498 1498 1498 1497 1496 1496 1495 1494 1494 1493 1492 1491 1491 1490
1513 1513 1513 1513 1513 1513 1513 1512 1512 1512 1511 1511 1510 1510 1509 1509 1509 1508 1507 1506 1505 1505 1504 1503 1502 1501 1499 1497 1496 1495 1495 1494 1494 1493 1493 1493 1492 1491 1490 1489 1489 1488 1488
1512 1513 1513 1513 1513 1512 1512 1511 1511 1510 1509 1509 1509 1508 1507 1507 1506 1506 1505 1504 1504 1503 1502 1501 1501 1499 1498 1496 1495 1493 1493 1492 1491 1491 1491 1490 1489 1488 1487 1487 1486 1486 1486
1512 1512 1512 1512 1512 1511 1511 1510 1510 1509 1508 1508 1507 1506 1505 1505 1504 1504 1504 1503 1502 1501 1500 1499 1499 1498 1497 1495 1494 1492 1491 1490 1490 1489 1488 1488 1487 1486 1485 1484 1484 1483 1483
1511 1511 1511 1511 1511 1510 1509 1509 1508 1507 1507 1506 1505 1504 1504 1503 1502 1501 1500 1500 1499 1498 1498 1498 1497 1496 1495 1494 1492 1491 1490 1489 1488 1488 1487 1486 1485 1484 1484 1483 1482 1481 1480
1509 1509 1509 1510 1509 1509 1508 1507 1507 1506 1505 1504 1504 1503 1502 1501 1500 1499 1498 1497 1497 1496 1496 1495 1495 1494 1493 1492 1490 1489 1488 1487 1487 1486 1485 1484 1483 1482 1481 1480 1479 1478 1477